[[{"header":{"parameterUnit":"m.s-1","parameterCategory":1,"la1":30.2991,"la2":30.254,"lo1":-89.0895,"lo2":-89.0444,"dy":0.0017,"dx":0.0017,"nx":28,"ny":28,"refTime":"2024-07-14T03:00:00:Z","depth":0,"parameterNumber":2,"parameterNumberName":"U-component_of_WINDS"},"data":[0,0,0,0,0,0,0,0,0,0,0,0,0,0,0,0,0,0,0,0,0,0,0,0,0,0,0,0,0,0,0,0,0,0,0,0,0,0,0,0,0,0,0,0,0,0,0,0,0,0,0,0,0,0,0,0,0,0,-0.1829,-0.1829,0,-0.1783,-0.1782,-0.1782,-0.1751,-0.1751,-0.175,-0.175,-0.1702,-0.1701,-0.17,0,0,0,0,0,0,0,0,0,0,0,0,0,-0.1891,-0.189,-0.183,-0.1829,-0.1828,-0.1783,-0.1782,-0.1782,-0.1751,-0.1751,-0.175,-0.175,-0.1702,-0.1701,-0.17,0,0,0,0,0,0,0,0,0,0,0,0,0,-0.1856,-0.189,-0.183,-0.1807,-0.1805,-0.1783,-0.1782,-0.1782,-0.1751,-0.1751,-0.175,-0.175,-0.1703,-0.1701,-0.1699,-0.1696,0,0,-0.1694,-0.1694,0,0,0,0,0,0,0,0,-0.1858,-0.1854,-0.1811,-0.1809,-0.1806,-0.1772,-0.1786,-0.1753,-0.1751,-0.1771,-0.175,-0.175,-0.1725,-0.1722,-0.1714,-0.1693,-0.1691,-0.1694,-0.1693,-0.1693,-0.1692,0,0,0,0,0,0,0,-0.1861,-0.1856,-0.1811,-0.1811,-0.1808,-0.18,-0.1794,-0.178,-0.1751,-0.177,-0.1767,-0.1762,-0.1724,-0.1716,-0.1713,-0.1691,-0.1694,-0.1693,-0.1692,-0.1691,-0.1665,-0.1665,0,0,0,0,0,0,-0.1867,-0.1858,-0.1813,-0.181,-0.1832,-0.1799,-0.1793,-0.1784,-0.1751,-0.1746,-0.1763,-0.1761,-0.1719,-0.1714,-0.1711,-0.1704,-0.1693,-0.1691,-0.169,-0.1664,-0.1665,-0.1665,0,0,0,0,0,0,-0.1868,-0.1863,-0.1814,-0.1833,-0.1827,-0.1798,-0.1788,-0.1783,-0.1774,-0.1746,-0.174,-0.1759,-0.1718,-0.1713,-0.17,-0.1702,-0.169,-0.1689,-0.1664,-0.1664,-0.1665,-0.1691,0,0,0,0,0,0,-0.187,-0.1864,-0.1862,-0.1834,-0.1826,-0.1805,-0.1788,-0.1782,-0.1772,-0.1769,-0.1741,-0.1736,-0.1717,-0.1702,-0.1698,-0.17,-0.1688,-0.1664,-0.1664,-0.1665,-0.169,-0.1692,-0.1694,0,0,0,0,0,-0.1873,-0.1871,-0.1862,-0.1857,-0.1823,-0.1805,-0.18,-0.1779,-0.1772,-0.177,-0.1752,-0.1737,-0.1703,-0.1701,-0.1696,-0.1697,-0.1663,-0.1664,-0.1665,-0.1689,-0.1692,-0.1694,0,0,0,0,0,0,-0.1901,-0.1867,-0.1857,-0.1846,-0.1829,-0.18,-0.1797,-0.1783,-0.1767,-0.1765,-0.1739,-0.1733,-0.1722,-0.1708,-0.1707,-0.1692,-0.1681,-0.1681,-0.1701,-0.1704,-0.1706,-0.171,-0.1686,0,0,0,0,0,-0.1906,-0.1894,-0.1865,-0.1859,-0.1851,-0.1825,-0.1816,-0.1802,-0.1782,-0.1774,-0.1755,-0.1736,-0.1721,-0.1712,-0.1696,-0.1688,-0.1681,-0.1686,-0.1688,-0.169,-0.169,-0.1684,-0.1686,-0.1667,-0.1667,-0.1667,0,0,-0.1917,-0.1897,-0.1891,-0.1864,-0.1849,-0.1837,-0.1819,-0.1807,-0.1798,-0.1772,-0.1759,-0.1744,-0.1721,-0.171,-0.1704,-0.1698,-0.1694,-0.1691,-0.1693,-0.1692,-0.1685,-0.1687,-0.1689,-0.1667,-0.1667,-0.1667,0,0,-0.193,-0.1913,-0.1906,-0.1891,-0.1868,-0.1851,-0.1849,-0.1822,-0.1811,-0.1797,-0.1778,-0.1766,-0.1741,-0.1725,-0.1714,-0.1721,-0.1707,-0.1717,-0.1729,-0.1724,-0.1725,-0.1726,-0.1729,-0.173,-0.1717,-0.1717,-0.1717,0,-0.1946,-0.1927,-0.1904,-0.1893,-0.1882,-0.1859,-0.1851,-0.1838,-0.1811,-0.1803,-0.1797,-0.1764,-0.1748,-0.1733,-0.1734,-0.1726,-0.1723,-0.172,-0.1727,-0.1728,-0.1729,-0.1731,-0.1732,-0.1719,-0.1718,-0.1718,-0.1718,0,-0.1948,-0.1935,-0.1932,-0.1906,-0.1895,-0.1886,-0.1862,-0.1853,-0.1839,-0.1823,-0.1808,-0.1787,-0.1767,-0.1762,-0.1749,-0.1745,-0.1742,-0.1732,-0.1721,-0.1732,-0.1734,-0.1734,-0.1721,-0.172,-0.172,-0.1719,0,0,-0.1978,-0.194,-0.1939,-0.1927,-0.1899,-0.1889,-0.1879,-0.1859,-0.1852,-0.1834,-0.1824,-0.1804,-0.1794,-0.1781,-0.1765,-0.1761,-0.1767,-0.175,-0.175,-0.1754,-0.1762,-0.177,-0.1772,-0.1758,-0.1758,-0.1758,-0.1764,0,-0.1987,-0.1967,-0.1946,-0.1934,-0.1922,-0.1899,-0.189,-0.1872,-0.1856,-0.1844,-0.1826,-0.1812,-0.18,-0.1792,-0.1786,-0.1768,-0.1769,-0.1767,-0.1749,-0.1748,-0.1755,-0.1772,-0.1781,-0.1788,-0.1764,-0.1765,-0.1765,0,-0.1994,-0.1977,-0.1964,-0.1937,-0.1931,-0.1924,-0.1904,-0.1892,-0.1871,-0.186,-0.1846,-0.1829,-0.1817,-0.1807,-0.179,-0.1789,-0.1781,-0.177,-0.177,-0.1767,-0.1757,-0.177,-0.1789,-0.1791,-0.1765,-0.1765,-0.1765,0,-0.2018,-0.1992,-0.198,-0.197,-0.1939,-0.1934,-0.1921,-0.19,-0.1889,-0.1872,-0.1864,-0.1846,-0.1836,-0.1822,-0.18,-0.1795,-0.1785,-0.1774,-0.1775,-0.1776,-0.1774,-0.1775,-0.1792,-0.1769,-0.1769,-0.1769,-0.1769,0,-0.203,-0.2023,-0.199,-0.1983,-0.1974,-0.195,-0.1942,-0.1926,-0.1907,-0.1897,-0.1876,-0.1866,-0.1839,-0.1826,-0.1809,-0.1797,-0.1793,-0.1783,-0.1779,-0.1785,-0.1786,-0.1779,-0.1778,-0.1769,-0.1769,-0.1769,-0.1769,0,-0.2055,-0.2033,-0.2019,-0.199,-0.1982,-0.1977,-0.1952,-0.1944,-0.1928,-0.1914,-0.191,-0.1883,-0.1867,-0.1844,-0.1821,-0.1809,-0.18,-0.1793,-0.1807,-0.1804,-0.1807,-0.1807,-0.1821,-0.1821,-0.1798,-0.1798,-0.1798,0,-0.2064,-0.2058,-0.2028,-0.202,-0.2007,-0.1994,-0.1983,-0.1959,-0.1948,-0.1923,-0.1919,-0.1901,-0.1885,-0.186,-0.1838,-0.182,-0.1813,-0.1818,-0.181,-0.1816,-0.1812,-0.1813,-0.1812,-0.1821,-0.1821,-0.1821,-0.1822,0,-0.2083,-0.2073,-0.2058,-0.2039,-0.2026,-0.201,-0.1993,-0.1987,-0.196,-0.1949,-0.1932,-0.192,-0.1896,-0.1878,-0.1857,-0.1843,-0.1828,-0.1825,-0.1824,-0.183,-0.1839,-0.1834,-0.1813,-0.1824,-0.1824,-0.1824,-0.1824,-0.1824,-0.2101,-0.2094,-0.2072,-0.2056,-0.2041,-0.2025,-0.2016,-0.1998,-0.1983,-0.1962,-0.1949,-0.1932,-0.1911,-0.1881,-0.1868,-0.1854,-0.1848,-0.1847,-0.1847,-0.1847,-0.1849,-0.1841,-0.185,-0.185,-0.185,-0.185,-0.185,0,-0.2119,-0.2103,-0.2089,-0.2066,-0.2053,-0.2039,-0.202,-0.201,-0.1996,-0.1977,-0.1962,-0.1942,-0.1925,-0.1902,-0.1883,-0.1877,-0.1869,-0.1872,-0.1873,-0.187,-0.1856,-0.1858,-0.1879,-0.1879,-0.1879,-0.1879,-0.1879,-0.1879,-0.2127,-0.2115,-0.2101,-0.2081,-0.2065,-0.2049,-0.2039,-0.2024,-0.2009,-0.1988,-0.1974,-0.1959,-0.1938,-0.1918,-0.1901,-0.1894,-0.1888,-0.1894,-0.1885,-0.1873,-0.1871,-0.1868,-0.187,-0.1893,-0.1893,-0.19,-0.19,-0.19]},{"header":{"parameterUnit":"m.s-1","parameterCategory":1,"la1":30.2991,"la2":30.254,"lo1":-89.0895,"lo2":-89.0444,"dy":0.0017,"dx":0.0017,"nx":28,"ny":28,"refTime":"2024-07-14T03:00:00:Z","depth":0,"parameterNumber":3,"parameterNumberName":"V-component_of_WINDS"},"data":[0,0,0,0,0,0,0,0,0,0,0,0,0,0,0,0,0,0,0,0,0,0,0,0,0,0,0,0,0,0,0,0,0,0,0,0,0,0,0,0,0,0,0,0,0,0,0,0,0,0,0,0,0,0,0,0,0,0,3.8799,3.8798,0,3.8771,3.8771,3.877,3.876,3.876,3.876,3.876,3.8727,3.8726,3.8725,0,0,0,0,0,0,0,0,0,0,0,0,0,3.8838,3.8837,3.8799,3.8798,3.8798,3.8771,3.8771,3.877,3.876,3.876,3.876,3.876,3.8727,3.8726,3.8725,0,0,0,0,0,0,0,0,0,0,0,0,0,3.8816,3.8837,3.8799,3.879,3.8788,3.8771,3.8771,3.877,3.876,3.876,3.876,3.876,3.8728,3.8726,3.8725,3.8714,0,0,3.8721,3.872,0,0,0,0,0,0,0,0,3.8818,3.8815,3.8791,3.879,3.8789,3.8769,3.8772,3.8751,3.8759,3.877,3.876,3.876,3.8741,3.8738,3.8732,3.8712,3.8711,3.872,3.872,3.8719,3.8719,0,0,0,0,0,0,0,3.8819,3.8816,3.8788,3.8791,3.8789,3.8785,3.8782,3.8768,3.8755,3.8769,3.8769,3.8766,3.874,3.8734,3.8732,3.871,3.872,3.8719,3.8718,3.8718,3.8678,3.8678,0,0,0,0,0,0,3.8823,3.8817,3.8788,3.8787,3.8804,3.8785,3.8781,3.8775,3.8755,3.8752,3.8766,3.8765,3.8736,3.8733,3.873,3.8715,3.8719,3.8718,3.8717,3.8678,3.8678,3.8677,0,0,0,0,0,0,3.8824,3.882,3.879,3.8802,3.8798,3.8784,3.8777,3.8775,3.8769,3.8752,3.8749,3.8762,3.8736,3.8732,3.8718,3.8714,3.8717,3.8716,3.8678,3.8678,3.8678,3.8686,0,0,0,0,0,0,3.8825,3.8821,3.8817,3.8802,3.8797,3.8779,3.8777,3.8774,3.8767,3.8766,3.8748,3.8745,3.8736,3.872,3.8717,3.8712,3.8715,3.8678,3.8678,3.8678,3.8686,3.8686,3.8686,0,0,0,0,0,3.8826,3.882,3.8817,3.8814,3.8793,3.8779,3.8776,3.8767,3.8766,3.8762,3.8752,3.8746,3.8715,3.8719,3.8715,3.871,3.8679,3.8678,3.8678,3.8686,3.8686,3.8686,0,0,0,0,0,0,3.8834,3.8818,3.8815,3.8803,3.8793,3.8777,3.8772,3.8767,3.8755,3.8755,3.8742,3.8738,3.8724,3.8715,3.872,3.8697,3.8696,3.8695,3.8704,3.8704,3.8704,3.8706,3.8713,0,0,0,0,0,3.8834,3.8826,3.8812,3.8803,3.8798,3.8786,3.8779,3.8773,3.8761,3.8756,3.8744,3.8731,3.8719,3.8711,3.8698,3.8684,3.868,3.8679,3.8679,3.8679,3.8678,3.8669,3.8668,3.8676,3.8676,3.8676,0,0,3.8835,3.8825,3.882,3.8804,3.8795,3.8785,3.8782,3.8772,3.8764,3.8754,3.874,3.8731,3.8715,3.8701,3.8694,3.8693,3.8674,3.8678,3.8678,3.8677,3.8668,3.8668,3.8667,3.8676,3.8676,3.8676,0,0,3.8831,3.8823,3.8815,3.8807,3.8793,3.8785,3.8783,3.8768,3.8762,3.8749,3.8741,3.873,3.8709,3.8698,3.869,3.8682,3.8676,3.8678,3.8678,3.8669,3.8669,3.8668,3.8664,3.8663,3.8677,3.8677,3.8677,0,3.8833,3.882,3.8811,3.8802,3.8794,3.8786,3.8777,3.8768,3.8751,3.8746,3.8745,3.8718,3.8707,3.869,3.8688,3.8682,3.8678,3.868,3.867,3.8669,3.8668,3.8665,3.8663,3.8677,3.8677,3.8677,3.8677,0,3.8823,3.8813,3.8808,3.8793,3.8785,3.8776,3.8764,3.8757,3.8751,3.8742,3.8728,3.8714,3.8699,3.8694,3.8688,3.8676,3.8675,3.8672,3.8671,3.8668,3.8664,3.8663,3.8678,3.8677,3.8677,3.8677,0,0,3.8823,3.8804,3.8802,3.8795,3.878,3.8772,3.8761,3.8747,3.8741,3.8729,3.8719,3.8701,3.8698,3.8689,3.8681,3.8674,3.8667,3.8672,3.8671,3.8671,3.8652,3.8655,3.8653,3.8663,3.8663,3.8663,3.8654,0,3.8817,3.88,3.8792,3.8778,3.8768,3.876,3.8751,3.8739,3.8731,3.872,3.871,3.8698,3.8695,3.8689,3.8682,3.867,3.8663,3.867,3.8653,3.8652,3.8657,3.8652,3.8654,3.8646,3.8652,3.8652,3.8652,0,3.8808,3.8798,3.8783,3.8769,3.8765,3.8757,3.8743,3.8734,3.872,3.8714,3.8704,3.8696,3.8683,3.8683,3.8664,3.8669,3.8661,3.8654,3.8654,3.8652,3.8652,3.8649,3.8643,3.8642,3.865,3.865,3.865,0,3.881,3.8792,3.8781,3.8775,3.8758,3.8753,3.8745,3.8732,3.8724,3.8711,3.8706,3.8691,3.8683,3.8671,3.866,3.8661,3.8642,3.8641,3.8635,3.8636,3.8632,3.8632,3.8624,3.8627,3.8627,3.8627,3.8627,0,3.8804,3.8795,3.8782,3.8775,3.8764,3.8754,3.8743,3.8735,3.8723,3.8713,3.8704,3.8695,3.868,3.8668,3.8658,3.8644,3.864,3.8634,3.8632,3.8635,3.8636,3.8629,3.863,3.8626,3.8627,3.8627,3.8627,0,3.8804,3.8795,3.8782,3.8767,3.8763,3.8756,3.8743,3.8735,3.8726,3.8713,3.871,3.8695,3.8681,3.8668,3.8648,3.8642,3.8627,3.8623,3.8632,3.863,3.8626,3.8626,3.8614,3.8611,3.8616,3.8616,3.8616,0,3.8801,3.8795,3.8779,3.8773,3.8766,3.8756,3.8748,3.8737,3.8729,3.8713,3.8706,3.8692,3.8679,3.8656,3.8643,3.8627,3.8624,3.862,3.8621,3.8625,3.8623,3.8624,3.8623,3.862,3.862,3.862,3.862,0,3.8797,3.8793,3.8783,3.8771,3.8762,3.8752,3.8741,3.8736,3.8722,3.8713,3.87,3.869,3.8671,3.8656,3.8639,3.8629,3.8622,3.862,3.8618,3.8622,3.8627,3.8623,3.8632,3.8621,3.8621,3.8621,3.8621,3.8621,3.8795,3.8789,3.8777,3.8766,3.8757,3.8747,3.8739,3.873,3.8718,3.8703,3.8697,3.8682,3.8667,3.8644,3.8634,3.8622,3.862,3.8617,3.8617,3.8616,3.8617,3.8629,3.8619,3.8619,3.8618,3.8618,3.8618,0,3.879,3.8783,3.8773,3.8759,3.8749,3.8745,3.8733,3.8725,3.8713,3.8701,3.8689,3.8673,3.8658,3.8643,3.8627,3.862,3.8616,3.8616,3.8616,3.8614,3.8619,3.8622,3.8619,3.8619,3.8619,3.8619,3.8619,3.8619,3.8787,3.8776,3.877,3.8753,3.8745,3.8732,3.8726,3.8716,3.8706,3.8689,3.8677,3.8668,3.8654,3.8637,3.8623,3.8619,3.8613,3.8614,3.8609,3.8614,3.8614,3.8614,3.8617,3.8613,3.8613,3.8605,3.8605,3.8605]}]]